Location: �chenoz-la-M�line
(47.6009°N, 6.1354°E)
Time: 03:47:10
(UTC+00:00)

Meteor PRIRODA - Pass Details

Date: 27 January 2021
Orbit: 490 x 509 km, 97.6° (Epoch: 27 February)

Event Time Altitude Azimuth Distance (km) Brightness Sun altitude
Rises 05:27:00 0° 8° (N) 2,579 7.2 -17.0°
Reaches altitude 10° 05:29:06 10° 3° (N) 1,693 6.2 -16.6°
Maximum altitude 05:32:38 51° 288° (WNW) 623 3.7 -16.0°
Drops below altitude 10° 05:36:09 10° 211° (SSW) 1,681 6.1 -15.5°
Sets 05:38:15 0° 206° (SSW) 2,560 7.1 -15.1°
